Date_and_time,latitude,longitude,wind_speed,RelWindDirFrom,WindDirFrom,air_pressure,air_temperature,relative_humidity,Temp,platform_speed_wrt_ground,air_pressure_at_mean_sea_level,platform_orientation
2018-09-11 23:40,50.6304283333333,-96.9807766666667,14.1,23.9,307,978.18,17.4,65,17.55,0.0,1003.90,221.3
2018-09-11 23:50,50.6304383333333,-96.9807733333333,13.8,23.2,313,978.57,16.6,67,17.54,0.0,1004.33,221.3
2018-09-12 00:00,50.6304383333333,-96.9807733333333,10.7,19.9,303,979.13,16.2,69,17.53,0.0,1004.91,270.0
2018-09-12 00:10,50.6304383333333,-96.9807733333333,9.7,20.2,319,979.33,16.0,70,17.51,0.0,1005.14,270.0
2018-09-12 00:20,50.6304416666667,-96.98077,12.7,21.2,321,979.40,15.6,70,17.49,0.0,1005.24,270.0
2018-09-12 00:30,50.6304416666667,-96.98077,11.4,20.5,325,979.70,15.4,71,17.48,0.0,1005.59,270.0
2018-09-12 00:40,50.6304433333333,-96.9807683333333,13.4,19.8,318,979.88,15.2,71,17.46,0.0,1005.80,270.0
2018-09-12 00:50,50.6304433333333,-96.9807666666667,10.9,17.7,312,980.20,15.0,71,17.42,0.0,1006.18,270.0
2018-09-12 01:00,50.6304433333333,-96.980765,8.9,14.3,315,980.58,15.0,72,17.38,0.0,1006.62,48.4
2018-09-12 01:10,50.6304433333333,-96.980765,8.0,14.2,313,980.79,14.9,72,17.37,0.0,1006.86,48.4
2018-09-12 01:20,50.6304433333333,-96.9807633333333,10.7,18.2,326,980.94,14.9,72,17.37,0.0,1007.02,48.4
2018-09-12 01:30,50.6304433333333,-96.9807633333333,10.1,16.6,321,981.11,14.8,70,17.38,0.0,1007.23,48.4
2018-09-12 01:40,50.6304433333333,-96.9807616666667,9.7,16.9,323,981.35,14.7,70,17.37,0.0,1007.51,48.4
2018-09-12 01:50,50.6304433333333,-96.9807616666667,10.1,15.3,324,981.37,14.7,70,17.35,0.0,1007.55,48.4
2018-09-12 02:00,50.6304416666667,-96.9807583333333,11.7,19.6,318,981.49,14.7,68,17.35,0.0,1007.68,48.3
2018-09-12 02:10,50.63044,-96.9807566666667,9.4,16.3,323,981.75,14.7,69,17.34,0.0,1007.97,48.3
2018-09-12 02:20,50.63044,-96.9807583333333,8.5,14.2,320,982.06,14.6,69,17.34,0.0,1008.30,48.3
2018-09-12 02:30,50.6304416666667,-96.9807583333333,7.8,11.4,320,982.37,14.6,69,17.34,0.0,1008.63,48.3
2018-09-12 02:40,50.6304416666667,-96.9807566666667,8.6,13.4,316,982.49,14.6,68,17.32,0.0,1008.76,48.3
2018-09-12 02:50,50.6304416666667,-96.9807566666667,9.7,14.5,316,982.56,14.5,69,17.31,0.0,1008.84,48.3
2018-09-12 03:00,50.6304416666667,-96.9807566666667,12.4,19.9,318,982.57,14.4,71,17.30,0.0,1008.85,90.0
2018-09-12 03:10,50.6304416666667,-96.9807583333333,13.2,19.4,332,982.87,13.5,85,17.28,0.0,1009.21,90.0
2018-09-12 03:20,50.6304383333333,-96.9807633333333,13.2,19.3,334,983.04,12.4,95,17.27,0.0,1009.43,90.0
2018-09-12 03:30,50.6304433333333,-96.98076,10.6,18.1,330,983.36,12.2,92,17.27,0.0,1009.78,90.0
2018-09-12 03:40,50.6304416666667,-96.9807566666667,11.4,17.7,327,983.44,12.1,90,17.26,0.0,1009.86,90.0
2018-09-12 03:50,50.6304416666667,-96.9807583333333,10.3,14.9,326,983.61,11.9,89,17.24,0.0,1010.05,90.0
2018-09-12 04:00,50.6304266666667,-96.9807516666667,9.2,14.9,324,983.76,11.8,89,17.23,0.0,1010.21,147.5
2018-09-12 04:10,50.63044,-96.98076,8.5,13.1,322,983.94,11.7,90,17.22,0.0,1010.40,147.5
2018-09-12 04:20,50.6304433333333,-96.9807633333333,8.7,14.4,320,984.06,11.5,90,17.21,0.0,1010.53,147.5
2018-09-12 04:30,50.6304433333333,-96.9807666666667,9.6,14.4,320,984.20,11.3,89,17.19,0.0,1010.69,147.5
2018-09-12 04:40,50.6304416666667,-96.980765,8.9,12.5,322,984.50,11.1,89,17.19,0.0,1011.01,147.5
2018-09-12 04:50,50.63044,-96.9807666666667,9.5,13.5,323,984.64,10.9,89,17.19,0.0,1011.17,147.5
2018-09-12 05:00,50.6304416666667,-96.9807733333333,10.1,16.3,323,984.66,10.7,90,17.17,0.0,1011.24,270.0
2018-09-12 05:10,50.63044,-96.9807716666667,8.9,13.3,322,984.83,10.6,90,17.16,0.0,1011.48,270.0
2018-09-12 05:20,50.6304416666667,-96.98077,8.5,13.1,317,985.00,10.4,91,17.16,0.0,1011.67,270.0
2018-09-12 05:30,50.6304416666667,-96.9807716666667,7.0,10.9,311,985.26,10.2,92,17.15,0.0,1011.95,270.0
2018-09-12 05:40,50.6304416666667,-96.98077,6.3,10.8,309,985.46,10.1,93,17.13,0.0,1012.16,270.0
2018-09-12 05:50,50.6304416666667,-96.9807633333333,6.4,10.4,306,985.59,9.9,95,17.12,0.0,1012.31,270.0
2018-09-12 06:00,50.6304433333333,-96.9807683333333,5.9,10.6,311,985.84,9.8,96,17.11,0.0,1012.58,270.0
2018-09-12 06:10,50.630445,-96.9807716666667,5.9,10.1,301,986.08,9.7,98,17.09,0.0,1012.84,270.0
2018-09-12 06:20,50.6304416666667,-96.980765,5.7,9.3,296,986.38,9.6,98,17.08,0.0,1013.16,270.0
2018-09-12 06:30,50.63044,-96.9807666666667,6.6,10.7,298,986.45,9.6,97,17.08,0.0,1013.25,270.0
2018-09-12 06:40,50.6304333333333,-96.9807616666667,6.5,10.6,303,986.59,9.5,96,17.07,0.0,1013.40,270.0
2018-09-12 06:50,50.6304366666667,-96.98077,5.7,8.5,300,986.75,9.4,96,17.05,0.0,1013.58,270.0
2018-09-12 07:00,50.63044,-96.9807666666667,6.5,9.6,296,986.94,9.4,97,17.04,0.0,1013.79,356.8
2018-09-12 07:10,50.63045,-96.9807916666667,7.5,11.3,307,987.07,9.5,97,17.04,0.0,1013.92,356.8
2018-09-12 07:20,50.6304383333333,-96.98077,8.0,12.8,309,987.26,9.5,97,17.02,0.0,1014.12,356.8
2018-09-12 07:30,50.6304383333333,-96.9807766666667,8.6,13.6,308,987.34,9.4,98,16.99,0.0,1014.22,356.8
2018-09-12 07:40,50.630455,-96.9807683333333,7.7,12.6,306,987.39,9.4,98,16.99,0.0,1014.28,356.8
2018-09-12 07:50,50.630435,-96.9807633333333,6.9,10.4,300,987.53,9.2,98,16.97,0.0,1014.43,356.8
2018-09-12 08:00,50.630435,-96.9807633333333,6.9,10.5,300,987.69,9.0,99,16.96,0.0,1014.61,131.7
2018-09-12 08:10,50.6304333333333,-96.9807716666667,7.0,10.5,301,987.77,8.9,99,16.96,0.0,1014.71,131.7
2018-09-12 08:20,50.6304383333333,-96.9807633333333,7.2,12.6,309,987.79,8.8,99,16.95,0.0,1014.73,131.7
2018-09-12 08:30,50.6304383333333,-96.980765,7.4,11.7,307,987.80,8.7,99,16.93,0.0,1014.76,131.7
2018-09-12 08:40,50.630435,-96.98077,6.5,10.0,301,987.89,8.6,99,16.92,0.0,1014.85,131.7
2018-09-12 08:50,50.630435,-96.98077,7.1,11.8,308,987.94,8.5,99,16.91,0.0,1014.91,131.7
2018-09-12 09:00,50.6304366666667,-96.9807716666667,8.0,11.5,312,988.05,8.5,99,16.91,0.0,1015.02,228.3
2018-09-12 09:10,50.630445,-96.98077,6.0,9.7,307,988.20,8.5,99,16.90,0.0,1015.18,228.3
2018-09-12 09:20,50.6304416666667,-96.980765,5.8,8.1,317,988.40,8.6,99,16.89,0.0,1015.38,228.3
2018-09-12 09:30,50.63044,-96.9807666666667,5.8,8.9,324,988.54,8.7,99,16.87,0.0,1015.52,228.3
2018-09-12 09:40,50.63044,-96.980765,5.7,8.7,313,988.71,8.7,99,16.86,0.0,1015.71,228.3
2018-09-12 09:50,50.6304383333333,-96.9807633333333,5.7,8.5,304,988.90,8.5,99,16.86,0.0,1015.92,228.3
2018-09-12 10:00,50.6304366666667,-96.980765,5.5,8.3,300,989.11,8.4,99,16.86,0.0,1016.14,360.0
2018-09-12 10:10,50.6304266666667,-96.9807933333333,5.5,7.7,296,989.27,8.3,99,16.85,0.0,1016.32,360.0
2018-09-12 10:20,50.6304316666667,-96.9807916666667,5.3,8.3,302,989.35,8.1,99,16.85,0.0,1016.41,360.0
2018-09-12 10:30,50.6304333333333,-96.9807866666667,5.5,8.1,301,989.33,7.9,100,16.84,0.0,1016.40,360.0
2018-09-12 10:40,50.630435,-96.9807816666667,6.4,9.8,302,989.37,7.6,100,16.82,0.0,1016.46,360.0
2018-09-12 10:50,50.6304383333333,-96.9807816666667,6.0,9.3,308,989.43,7.4,100,16.81,0.0,1016.53,360.0
2018-09-12 11:00,50.6304366666667,-96.98078,5.9,9.1,299,989.63,7.4,100,16.78,0.0,1016.75,270.0
2018-09-12 11:10,50.6304366666667,-96.98078,5.7,8.8,296,989.84,7.3,100,16.77,0.0,1016.96,270.0
2018-09-12 11:20,50.6304416666667,-96.9807616666667,5.7,8.4,299,989.80,7.2,100,16.76,0.0,1016.92,270.0
2018-09-12 11:30,50.63044,-96.98076,5.9,8.4,308,989.67,7.2,100,16.74,0.0,1016.79,270.0
2018-09-12 11:40,50.63044,-96.98076,6.2,9.1,315,989.73,7.5,100,16.74,0.0,1016.84,270.0
2018-09-12 11:50,50.6304266666667,-96.9807733333333,5.8,8.8,307,990.03,7.6,100,16.73,0.0,1017.15,270.0
2018-09-12 12:00,50.6304316666667,-96.9807666666667,5.6,8.4,300,990.10,7.5,100,16.72,0.0,1017.23,131.7
2018-09-12 12:10,50.6304316666667,-96.9807633333333,5.6,8.3,303,990.08,7.3,100,16.72,0.0,1017.22,131.7
2018-09-12 12:20,50.630435,-96.9807633333333,6.4,8.6,312,990.04,7.3,100,16.72,0.0,1017.20,131.7
2018-09-12 12:30,50.630435,-96.9807616666667,6.8,9.6,320,990.15,7.8,100,16.71,0.0,1017.31,131.7
2018-09-12 12:40,50.6304366666667,-96.98076,7.6,10.9,322,990.25,8.3,99,16.70,0.0,1017.39,131.7
2018-09-12 12:50,50.6304366666667,-96.98076,7.0,10.4,334,990.23,8.7,95,16.71,0.0,1017.35,131.7
2018-09-12 13:00,50.6304366666667,-96.9807616666667,8.3,12.0,337,990.03,9.1,94,16.69,0.0,1017.13,90.0
2018-09-12 13:10,50.6304383333333,-96.9807616666667,8.6,11.9,342,990.09,9.2,96,16.68,0.0,1017.20,90.0
2018-09-12 13:20,50.6304333333333,-96.9807683333333,7.3,10.5,333,990.23,9.2,96,16.67,0.0,1017.34,90.0
2018-09-12 13:30,50.6304283333333,-96.9807766666667,7.7,11.3,322,990.40,9.0,95,16.65,0.0,1017.50,90.0
2018-09-12 13:40,50.63043,-96.9807733333333,8.9,16.6,350,990.50,9.3,94,16.63,0.0,1017.59,90.0
2018-09-12 13:50,50.6304266666667,-96.9807666666667,14.3,17.8,26,990.56,10.6,86,16.59,0.0,1017.60,90.0
2018-09-12 14:00,50.6304433333333,-96.98078,13.9,17.7,26,991.01,10.6,85,16.57,0.0,1018.06,38.0
2018-09-12 14:10,50.6304383333333,-96.9807783333333,12.8,15.5,21,991.43,10.5,84,16.56,0.0,1018.50,38.0
2018-09-12 14:20,50.630435,-96.9807766666667,12.7,16.8,17,991.38,10.5,85,16.54,0.0,1018.42,38.0
2018-09-12 14:30,50.6304466666667,-96.980785,11.6,14.4,12,991.48,10.5,85,16.53,0.0,1018.51,38.0
2018-09-12 14:40,50.6304416666667,-96.9807716666667,12.8,16.7,14,991.42,10.4,86,16.52,0.0,1018.43,38.0
2018-09-12 14:50,50.6304383333333,-96.9807733333333,14.3,19.0,21,991.16,10.5,90,16.52,0.0,1018.14,38.0
2018-09-12 15:00,50.630435,-96.9807733333333,16.9,20.0,34,990.99,10.5,90,16.51,0.0,1017.96,311.7
2018-09-12 15:10,50.6304216666667,-96.9807833333333,15.8,19.0,36,990.98,10.4,88,16.51,0.0,1017.95,311.7
2018-09-12 15:20,50.6304233333333,-96.9807783333333,15.2,17.9,39,990.99,10.2,88,16.53,0.0,1017.98,311.7
2018-09-12 15:30,50.6304233333333,-96.9807716666667,14.3,19.5,32,991.20,10.2,90,16.52,0.0,1018.18,311.7
2018-09-12 15:40,50.6304233333333,-96.9807716666667,14.1,17.8,31,991.36,10.2,92,16.51,0.0,1018.29,311.7
2018-09-12 15:50,50.6304233333333,-96.9807733333333,12.6,16.4,41,991.60,10.2,88,16.50,0.0,1018.54,311.7
2018-09-12 16:00,50.63043,-96.980785,14.5,17.9,49,991.44,10.0,90,16.49,0.0,1018.38,237.7
2018-09-12 16:10,50.63044,-96.9807966666667,12.9,17.0,45,991.62,9.9,87,16.49,0.0,1018.57,237.7
2018-09-12 16:20,50.6304316666667,-96.98079,13.1,17.3,49,991.59,10.0,86,16.49,0.0,1018.54,237.7
2018-09-12 16:30,50.6304333333333,-96.98079,12.5,15.5,51,991.65,10.0,89,16.49,0.0,1018.60,237.7
2018-09-12 16:40,50.6304333333333,-96.9807916666667,13.0,16.7,47,991.51,10.1,87,16.48,0.0,1018.45,237.7
2018-09-12 16:50,50.6304316666667,-96.9807916666667,13.3,16.7,46,991.36,10.2,87,16.47,0.0,1018.29,237.7
2018-09-12 17:00,50.6304333333333,-96.9807816666667,12.2,16.0,60,991.31,10.2,86,16.47,0.0,1018.24,142.0
2018-09-12 17:10,50.6304333333333,-96.9807816666667,12.0,16.1,62,991.24,10.5,87,16.48,0.0,1018.17,142.0
2018-09-12 17:20,50.6304333333333,-96.9807833333333,11.3,14.8,64,991.24,10.8,85,16.49,0.0,1018.15,142.0
2018-09-12 17:30,50.6304316666667,-96.9807816666667,11.1,14.2,59,991.19,10.8,84,16.49,0.0,1018.10,142.0
2018-09-12 17:40,50.6304316666667,-96.98078,10.6,13.1,60,991.34,10.8,82,16.50,0.0,1018.25,142.0
2018-09-12 17:50,50.6304366666667,-96.980775,8.8,12.1,59,991.82,11.1,80,16.51,0.0,1018.74,142.0
2018-09-12 18:00,50.63044,-96.98078,7.2,9.4,74,992.23,11.4,78,16.53,0.0,1019.15,305.3
2018-09-12 18:10,50.6304333333333,-96.98075,6.6,10.1,81,992.04,11.4,76,16.51,0.0,1018.95,305.3
2018-09-12 18:20,50.630435,-96.9808016666667,4.8,8.4,64,992.33,11.3,78,16.50,0.0,1019.25,305.3
2018-09-12 18:30,50.6304066666667,-96.9808116666667,2.9,5.6,79,992.55,11.2,78,16.50,0.0,1019.48,305.3
2018-09-12 18:40,50.63043,-96.9807883333333,2.5,6.4,92,992.79,11.5,77,16.52,0.0,1019.71,305.3
2018-09-12 18:50,50.630415,-96.98079,3.8,6.2,82,992.64,11.7,77,16.53,0.0,1019.55,305.3
2018-09-12 19:00,50.6304233333333,-96.9807883333333,3.2,5.9,86,992.44,11.8,75,16.52,0.0,1019.32,270.0
2018-09-12 19:10,50.6304266666667,-96.9807816666667,5.6,8.5,87,992.12,12.0,76,16.50,0.0,1018.97,270.0
2018-09-12 19:20,50.63043,-96.9807783333333,5.3,8.1,69,992.20,11.9,77,16.49,0.0,1019.06,270.0
2018-09-12 19:30,50.63043,-96.9807766666667,6.2,9.4,62,992.08,11.5,78,16.49,0.0,1018.95,270.0
2018-09-12 19:40,50.6304383333333,-96.9807783333333,7.0,9.3,61,991.88,11.5,78,16.49,0.0,1018.73,270.0
2018-09-12 19:50,50.63044,-96.9807833333333,8.2,10.8,43,991.48,11.4,79,16.49,0.0,1018.31,270.0
2018-09-12 20:00,50.6304383333333,-96.9807816666667,9.3,13.3,43,991.05,11.5,80,16.48,0.0,1017.86,360.0
2018-09-12 20:10,50.6304366666667,-96.9807816666667,10.5,13.4,43,990.88,11.7,79,16.47,0.0,1017.69,360.0
2018-09-12 20:20,50.630435,-96.98078,10.2,13.1,35,990.78,11.9,78,16.47,0.0,1017.58,360.0
2018-09-12 20:30,50.6304483333333,-96.9807866666667,12.4,16.4,43,990.47,12.3,76,16.48,0.0,1017.23,360.0
2018-09-12 20:40,50.63043,-96.9807666666667,13.2,16.0,41,990.46,12.5,77,16.49,0.0,1017.20,360.0
2018-09-12 20:50,50.6304366666667,-96.9807683333333,12.1,15.7,61,990.61,12.4,76,16.51,0.0,1017.36,360.0
2018-09-12 21:00,50.6304366666667,-96.9807683333333,12.5,16.0,60,990.35,12.4,77,16.53,0.0,1017.07,113.6
2018-09-12 21:10,50.630435,-96.9807666666667,11.8,16.0,60,990.36,12.5,77,16.54,0.0,1017.09,113.6
2018-09-12 21:20,50.6304333333333,-96.9807666666667,13.0,15.3,61,990.15,12.6,77,16.54,0.0,1016.89,113.6
2018-09-12 21:30,50.6304316666667,-96.9807683333333,13.6,17.7,67,989.84,12.8,76,16.52,0.0,1016.56,113.6
2018-09-12 21:40,50.6304266666667,-96.9807783333333,13.7,16.4,65,989.63,12.8,77,16.49,0.0,1016.34,113.6
2018-09-12 21:50,50.63043,-96.9807883333333,12.8,16.0,60,989.47,12.9,77,16.48,0.0,1016.18,113.6
2018-09-12 22:00,50.6304233333333,-96.9807883333333,12.2,14.9,60,989.35,12.9,78,16.45,0.0,1016.04,0.0
2018-09-12 22:10,50.6304216666667,-96.98077,13.5,15.9,56,988.85,13.0,76,16.43,0.0,1015.51,0.0
2018-09-12 22:20,50.6304216666667,-96.98077,15.2,18.9,57,988.56,13.2,75,16.42,0.0,1015.19,0.0
2018-09-12 22:30,50.630425,-96.9807733333333,15.7,19.4,65,988.50,13.4,72,16.43,0.0,1015.11,0.0
2018-09-12 22:40,50.630425,-96.9807733333333,16.4,19.8,67,988.34,13.5,72,16.44,0.0,1014.94,0.0
2018-09-12 22:50,50.6304266666667,-96.980775,15.1,18.5,62,988.26,13.5,73,16.46,0.0,1014.86,0.0
2018-09-12 23:00,50.6304266666667,-96.980775,16.3,19.2,72,988.09,13.5,75,16.45,0.0,1014.68,176.8
2018-09-12 23:10,50.6304283333333,-96.980775,15.6,19.9,73,988.43,13.5,75,16.45,0.0,1015.02,176.8
2018-09-12 23:20,50.6304283333333,-96.980775,15.2,18.8,82,988.55,13.6,75,16.43,0.0,1015.13,176.8
2018-09-12 23:30,50.6304283333333,-96.98078,13.1,16.6,85,988.71,13.8,74,16.41,0.0,1015.29,176.8
2018-09-12 23:40,50.63043,-96.9807733333333,13.9,17.6,84,988.82,13.9,76,16.41,0.0,1015.39,176.8
2018-09-12 23:50,50.6304333333333,-96.9807766666667,15.1,18.7,87,988.64,13.9,75,16.40,0.0,1015.21,176.8
